Location: ČR
(50.0000°N, 15.0000°E)
Time: 07:27:02
(UTC+00:00)

BlueWalker 3 - Visible Passes

Search period start: 06 December 2022 00:00
Search period end: 16 December 2022 00:00
Orbit: 501 x 518 km, 53.2° (Epoch: 05 December)

Date Brightness Start Highest point End Pass type
(mag) Time Alt. Az. Time Alt. Az. Time Alt. Az.
06 Dec 2.0 16:25:36 10° WNW 16:29:30 61° NNE 16:31:40 24° E visible
06 Dec 3.9 18:04:22 10° WNW 18:06:30 29° W 18:06:30 29° W visible
07 Dec 2.0 16:07:12 10° WNW 16:11:06 63° NNE 16:14:15 15° E visible
07 Dec 3.1 17:45:59 10° WNW 17:49:07 42° WSW 17:49:07 42° WSW visible
08 Dec 2.0 15:48:47 10° WNW 15:52:42 64° NNE 15:56:35 10° E visible
08 Dec 2.8 17:27:34 10° WNW 17:31:18 44° SW 17:31:51 41° S visible
09 Dec 2.0 15:30:23 10° WNW 15:34:18 66° NNE 15:38:10 10° E visible
09 Dec 3.1 17:09:11 10° WNW 17:12:53 42° SW 17:14:45 24° SSE visible
10 Dec 3.2 16:50:47 10° WNW 16:54:27 40° SW 16:57:54 11° SSE visible
11 Dec 3.4 16:32:22 10° WNW 16:36:01 38° SW 16:39:38 10° SSE visible
12 Dec 3.6 16:13:58 10° WNW 16:17:34 36° SW 16:21:09 10° SSE visible
13 Dec 3.8 15:55:33 10° WNW 15:59:07 34° SW 16:02:39 10° SSE visible
14 Dec 4.0 15:37:08 10° WNW 15:40:40 32° SW 15:44:10 10° SSE visible
